Location: McCall
(45.0000°N, 116.0000°W)
Time: 19:36:46
(UTC-06:00)

Saudisat 1A - Visible Passes

Search period start: 22 October 2014 00:00
Search period end: 01 November 2014 00:00
Orbit: 598 x 608 km, 64.6° (Epoch: 22 October)

Date Brightness Start Highest point End Pass type
(mag) Time Alt. Az. Time Alt. Az. Time Alt. Az.
26 Oct 11.6 07:04:05 10° SE 07:05:22 11° ESE 07:06:40 10° E visible
27 Oct 10.9 07:13:53 10° SSE 07:17:09 21° ESE 07:20:26 10° ENE visible
28 Oct 9.7 07:24:58 10° S 07:29:01 37° ESE 07:33:05 10° NE visible
29 Oct 8.4 07:36:37 10° SSW 07:40:58 69° ESE 07:45:22 10° NE visible
30 Oct 11.0 06:11:27 10° SE 06:14:00 15° ESE 06:16:33 10° ENE visible
31 Oct 10.1 06:22:04 10° S 06:25:47 27° ESE 06:29:31 10° ENE visible
